Meteo pe oră la Czyste

Astăzi, 23 Aprilie, Vineri

Timp Temperatura Precipitaţii Vânt Presiune Umiditate
00:00 +1°C° 0 mm 3 m/s 751 mmHg 87%
01:00 0°C° 0 mm 3 m/s 751 mmHg 87%
02:00 0°C° 0 mm 3 m/s 751 mmHg 89%
03:00 -2°C° 0 mm 4 m/s 751 mmHg 90%
04:00 -2°C° 0 mm 4 m/s 751 mmHg 92%
05:00 -1°C° 0 mm 4 m/s 751 mmHg 89%
06:00 0°C° 0 mm 5 m/s 752 mmHg 86%
07:00 +2°C° 0 mm 5 m/s 752 mmHg 83%
08:00 +3°C° 0.1 mm 6 m/s 752 mmHg 78%
09:00 +4°C° 0.1 mm 6 m/s 752 mmHg 72%
10:00 +5°C° 0.1 mm 7 m/s 752 mmHg 67%
11:00 +5°C° 0.2 mm 7 m/s 752 mmHg 66%
12:00 +5°C° 0.2 mm 7 m/s 753 mmHg 65%
13:00 +5°C° 0.2 mm 7 m/s 753 mmHg 63%
14:00 +5°C° 0.3 mm 7 m/s 753 mmHg 66%
15:00 +5°C° 0.3 mm 7 m/s 753 mmHg 69%
16:00 +4°C° 0.3 mm 7 m/s 753 mmHg 72%
17:00 +4°C° 0.2 mm 6 m/s 753 mmHg 76%
18:00 +3°C° 0.2 mm 5 m/s 753 mmHg 80%
19:00 +4°C° 0.2 mm 4 m/s 753 mmHg 84%
20:00 +3°C° 0 mm 3 m/s 754 mmHg 84%
21:00 +2°C° 0 mm 3 m/s 754 mmHg 85%
22:00 +2°C° 0 mm 3 m/s 754 mmHg 85%
23:00 +2°C° 0 mm 2 m/s 754 mmHg 83%

Mâine, 24 Aprilie, Sâmbătă

Timp Temperatura Precipitaţii Vânt Presiune Umiditate
00:00 +2°C° 0 mm 2 m/s 754 mmHg 80%
01:00 +1°C° 0 mm 2 m/s 754 mmHg 78%
02:00 +1°C° 0 mm 2 m/s 753 mmHg 77%
03:00 +1°C° 0 mm 2 m/s 753 mmHg 76%
04:00 0°C° 0 mm 3 m/s 753 mmHg 75%
05:00 +1°C° 0 mm 3 m/s 753 mmHg 72%
06:00 +2°C° 0 mm 3 m/s 754 mmHg 68%
07:00 +3°C° 0 mm 3 m/s 754 mmHg 65%
08:00 +5°C° 0 mm 3 m/s 754 mmHg 60%
09:00 +6°C° 0 mm 4 m/s 754 mmHg 55%
10:00 +8°C° 0 mm 4 m/s 753 mmHg 50%
11:00 +8°C° 0.1 mm 4 m/s 753 mmHg 53%
12:00 +8°C° 0.1 mm 5 m/s 753 mmHg 55%
13:00 +8°C° 0.1 mm 5 m/s 753 mmHg 58%
14:00 +8°C° 0.2 mm 5 m/s 752 mmHg 60%
15:00 +8°C° 0.2 mm 5 m/s 752 mmHg 62%
16:00 +7°C° 0.2 mm 5 m/s 752 mmHg 64%
17:00 +6°C° 0.1 mm 5 m/s 752 mmHg 67%
18:00 +6°C° 0.1 mm 4 m/s 752 mmHg 70%
19:00 +5°C° 0.1 mm 4 m/s 752 mmHg 73%
20:00 +4°C° 0 mm 3 m/s 752 mmHg 75%
21:00 +3°C° 0 mm 2 m/s 753 mmHg 78%
22:00 +2°C° 0 mm 2 m/s 753 mmHg 81%
23:00 +2°C° 0 mm 2 m/s 753 mmHg 82%

Poimâine, 25 Aprilie, Duminică

Timp Temperatura Precipitaţii Vânt Presiune Umiditate
00:00 +1°C° 0 mm 2 m/s 753 mmHg 82%
01:00 +1°C° 0 mm 1 m/s 753 mmHg 83%
02:00 -1°C° 0 mm 2 m/s 753 mmHg 81%
03:00 -2°C° 0 mm 2 m/s 753 mmHg 80%
04:00 -2°C° 0 mm 2 m/s 753 mmHg 78%
05:00 -1°C° 0 mm 3 m/s 754 mmHg 72%
06:00 +1°C° 0 mm 3 m/s 754 mmHg 66%
07:00 +1°C° 0 mm 4 m/s 754 mmHg 60%
08:00 +3°C° 0 mm 4 m/s 754 mmHg 52%
09:00 +5°C° 0 mm 5 m/s 754 mmHg 45%
10:00 +6°C° 0 mm 5 m/s 753 mmHg 38%
11:00 +7°C° 0 mm 5 m/s 753 mmHg 38%
12:00 +7°C° 0 mm 6 m/s 753 mmHg 39%
13:00 +7°C° 0 mm 6 m/s 753 mmHg 40%
14:00 +7°C° 0 mm 6 m/s 753 mmHg 41%
15:00 +7°C° 0 mm 6 m/s 753 mmHg 42%
16:00 +7°C° 0 mm 6 m/s 753 mmHg 44%
17:00 +5°C° 0.1 mm 5 m/s 753 mmHg 48%
18:00 +4°C° 0.1 mm 4 m/s 753 mmHg 52%
19:00 +1°C° 0.1 mm 4 m/s 753 mmHg 56%
20:00 +1°C° 0 mm 3 m/s 753 mmHg 59%
21:00 0°C° 0 mm 3 m/s 753 mmHg 61%
22:00 -1°C° 0 mm 3 m/s 753 mmHg 64%
23:00 -1°C° 0 mm 3 m/s 753 mmHg 66%

26 Aprilie, Luni

Timp Temperatura Precipitaţii Vânt Presiune Umiditate
00:00 -2°C° 0 mm 2 m/s 753 mmHg 68%
01:00 -2°C° 0 mm 2 m/s 753 mmHg 69%
02:00 -2°C° 0 mm 2 m/s 752 mmHg 69%
03:00 -2°C° 0 mm 2 m/s 752 mmHg 69%
04:00 -2°C° 0 mm 2 m/s 752 mmHg 68%
05:00 -1°C° 0 mm 3 m/s 752 mmHg 64%
06:00 +1°C° 0 mm 3 m/s 752 mmHg 61%
07:00 +1°C° 0 mm 4 m/s 752 mmHg 57%
08:00 +4°C° 0 mm 4 m/s 752 mmHg 52%
09:00 +5°C° 0 mm 4 m/s 751 mmHg 48%
10:00 +6°C° 0 mm 5 m/s 751 mmHg 44%
11:00 +7°C° 0 mm 4 m/s 751 mmHg 42%
12:00 +7°C° 0 mm 4 m/s 751 mmHg 39%
13:00 +7°C° 0 mm 4 m/s 750 mmHg 37%
14:00 +7°C° 0 mm 4 m/s 750 mmHg 41%
15:00 +7°C° 0 mm 4 m/s 750 mmHg 44%
16:00 +7°C° 0 mm 5 m/s 750 mmHg 48%
17:00 +5°C° 0 mm 4 m/s 749 mmHg 55%
18:00 +4°C° 0 mm 3 m/s 749 mmHg 62%
19:00 +4°C° 0 mm 2 m/s 749 mmHg 68%
20:00 +3°C° 0 mm 2 m/s 749 mmHg 70%
21:00 +2°C° 0 mm 2 m/s 749 mmHg 71%
22:00 +2°C° 0 mm 2 m/s 749 mmHg 72%
23:00 +1°C° 0 mm 2 m/s 749 mmHg 72%

27 Aprilie, Marţi

Timp Temperatura Precipitaţii Vânt Presiune Umiditate
00:00 +1°C° 0 mm 2 m/s 749 mmHg 73%
01:00 +1°C° 0 mm 1 m/s 749 mmHg 73%
02:00 +1°C° 0 mm 1 m/s 749 mmHg 72%
03:00 +1°C° 0 mm 1 m/s 749 mmHg 70%
04:00 0°C° 0 mm 1 m/s 748 mmHg 69%
05:00 +2°C° 0 mm 1 m/s 748 mmHg 64%
06:00 +4°C° 0 mm 1 m/s 748 mmHg 59%
07:00 +5°C° 0 mm 1 m/s 748 mmHg 54%
08:00 +7°C° 0 mm 1 m/s 748 mmHg 50%
09:00 +8°C° 0 mm 1 m/s 748 mmHg 47%
10:00 +9°C° 0 mm 1 m/s 748 mmHg 43%
11:00 +9°C° 0 mm 2 m/s 747 mmHg 42%
12:00 +10°C° 0 mm 2 m/s 747 mmHg 41%
13:00 +10°C° 0 mm 2 m/s 746 mmHg 40%
14:00 +10°C° 0 mm 3 m/s 746 mmHg 41%
15:00 +11°C° 0 mm 3 m/s 745 mmHg 42%
16:00 +11°C° 0 mm 3 m/s 745 mmHg 43%
17:00 +10°C° 0 mm 3 m/s 744 mmHg 49%
18:00 +8°C° 0 mm 3 m/s 744 mmHg 56%
19:00 +6°C° 0 mm 4 m/s 744 mmHg 62%
20:00 +7°C° 0 mm 3 m/s 743 mmHg 62%
21:00 +7°C° 0 mm 3 m/s 743 mmHg 62%
22:00 +5°C° 0 mm 3 m/s 743 mmHg 62%
23:00 +5°C° 0.1 mm 3 m/s 742 mmHg 64%

28 Aprilie, Miercuri

Timp Temperatura Precipitaţii Vânt Presiune Umiditate
00:00 +5°C° 0.1 mm 3 m/s 742 mmHg 66%
01:00 +5°C° 0.1 mm 3 m/s 741 mmHg 68%
02:00 +5°C° 0.2 mm 3 m/s 741 mmHg 70%
03:00 +4°C° 0.2 mm 3 m/s 740 mmHg 73%
04:00 +4°C° 0.2 mm 3 m/s 740 mmHg 75%
05:00 +5°C° 0.4 mm 2 m/s 740 mmHg 80%
06:00 +5°C° 0.4 mm 2 m/s 740 mmHg 85%
07:00 +5°C° 0.4 mm 2 m/s 740 mmHg 90%
08:00 +5°C° 0.1 mm 2 m/s 740 mmHg 90%
09:00 +6°C° 0.1 mm 2 m/s 739 mmHg 91%
10:00 +6°C° 0.1 mm 2 m/s 739 mmHg 92%
11:00 +6°C° 0.1 mm 2 m/s 739 mmHg 92%
12:00 +6°C° 0.1 mm 2 m/s 739 mmHg 93%
13:00 +6°C° 0.1 mm 2 m/s 739 mmHg 93%
14:00 +6°C° 0.2 mm 2 m/s 740 mmHg 94%
15:00 +6°C° 0.2 mm 2 m/s 740 mmHg 95%
16:00 +6°C° 0.2 mm 2 m/s 740 mmHg 95%
17:00 +5°C° 0.1 mm 2 m/s 740 mmHg 96%
18:00 +5°C° 0.1 mm 2 m/s 740 mmHg 96%
19:00 +5°C° 0.1 mm 2 m/s 741 mmHg 96%
20:00 +5°C° 0 mm 2 m/s 741 mmHg 95%
21:00 +5°C° 0 mm 2 m/s 742 mmHg 95%
22:00 +5°C° 0 mm 2 m/s 742 mmHg 94%
23:00 +5°C° 0 mm 2 m/s 742 mmHg 94%
Arată mai mult

Formular de consimțământ

Meteoprog și furnizorii noștri de servicii pot stoca și accesa date personale, precum cookies, identificatori de dispozitiv sau alte tehnologii similare pe dispozitivul dumneavoastră și procesa astfel de date pentru a personaliza conținutul și reclamele, dar și pentru a oferi caracteristici de social media și pentru a analiza traficul.

  • Stocarea și/sau accesarea informațiilor pe dispozitivul dumneavoastră

    Cookies, identificatori de dispozitiv sau alte informații pot fi stocate sau accesate pe dispozitiv în scopurile indicate mai sus.

  • Reclame și conținut personalizat, evaluarea reclamelor și a conținutului, informații despre audiențe și dezvoltarea produselor

    Reclamele și conținutul pot fi personalizate pe baza unui profil. Pot fi adăugate date suplimentare pentru a personaliza mai bine reclamele și conținutul. Performanța reclamelor și conținutului poate fi măsurată. Pot fi obținute informații despre utilizatorii care au văzut reclamele și conținutul. Aceste date pot fi utilizate pentru a dezvolta sau îmbunătăți experiența utilizatorilor, sistemele și software-ul.

Dând clic pe ‘Sunt de acord’, permiteți utilizarea cookie-urilor menționate, a identificatorilor de dispozitiv, balizelor web sau altor tehnologii similare. Setările pot fi modificate din browser-ul dispozitivului dumneavoastră.

În anumite scopuri, interesele legitime pot prima asupra consimțământului. Puteți citi mai multe informații în acest sens în Politica privind Confidențialitatea Datelor și Cookie.